CZ-6A DEB

Satellite information

Favourite Embed

Satellite Type and Status

DEBRISIN ORBIT

Key statistics

Satellite CZ-6A DEB at a glance.

Uptime

1023

Days in orbit

Revolutions

≈ 14.3

Per day

Orbit

SSO

Sun Synchronous Orbit

Inclination

98.8

Latest

Satellite identification and parameters

Extended collection of information and parameters for CZ-6A DEB.

Object identification

Identified? True

Debris? True

Object name: CZ-6A DEB

International designator: 2022-151ACD

Object number (NORAD): 56261

Object ID (CCSDS): 56261

Country: PEOPLES REPUBLIC OF CHINA (PRC)

Current information (Y/N): Y

RCS size: SMALL

Orbital parameters

Period: 100.783 minutes

Inclination: 98.8134 deg

SMA: 7173.835 km

Apoapsis: 827.113 km

Periapsis: 764.287 km

RAAN: 253.3832 deg

Eccentricy: 0.00437881

Argument of periapsis: 67.6519 deg

Mean anomaly: 292.9295 deg

Mean motion: 14.28814035 rev/day

Mean motion (dot): 0.00010008 rev/day2

B* drag term: 0.0039422283 1/REarth

Two-line elements (TLE)

Creation date: Aug. 29, 2025, 9:54 a.m.

Reference frame: TEME

Reference center: EARTH

Epoch: Aug. 28, 2025, 11:44 p.m. UTC

TLE line 0: 0 CZ-6A DEB

TLE line 1: 1 56261U 22151ACD 25240.98948411 .00010008 00000-0 39422-2 0 9999

TLE line 2: 2 56261 98.8134 253.3832 0043788 67.6519 292.9295 14.28814035130182

Live tracking on map

Real-time ground track for satellite CZ-6A DEB.

In-orbit conjunctions

A list of the most updated potential collisions computed for object CZ-6A DEB.

Target Orbit TCA Probability of collision Miss distance Type
NOAA 16 DEB SSO 2024-11-07 18:13:44 0.0005234841 698.0 (m) DEBRIS
SL-16 R/B LEO 2024-09-27 09:47:19 0.0002148354 898.0 (m) ROCKET BODY

Associated space launch

Chinese satellite reported for atmospheric/ocean/environmental/spatial parameter research purposes, details TBD.

CZ-6A DEB was lifted into orbit during the mission ‘Long March 6A | Yunhai 3’, on board a Long March 6A space rocket.

The launch took place on Nov. 11, 2022, 10:52 p.m. from Launch Complex 9A.

For more information about the launch, click the button.

Launch to space Long March 6A | Yunhai 3
Long March 6A | Yunhai 3

Agency: N/A

Status: Launch Successful

Launch date: Nov. 11, 2022, 10:52 p.m. UTC

Rocket: Long March 6A

Launch pad: Launch Complex 9A

Location: Taiyuan Satellite Launch Center, People's Republic of China

...

Latest news about this satellite

There are no fresh news available about this satellite. Check back as we update our databases every day.


Newsletter sign-up

Weekly statistics, charts and insights to help you stay on top of the space industry.